{"data":{"norad_id":48986,"epoch":"2026-09-20T04:21:04.341600Z","epoch_age_seconds":53307,"freshness":"FRESH","line1":"1 48986U 21060V   26263.18130025  .00000066  00000+0  13858-3 0  9992","line2":"2 48986  87.9156 209.9213 0002156  78.8664 281.2709 13.16594122252352","mean_motion":13.16594122,"eccentricity":0.0002156,"inclination_deg":87.9156,"raan_deg":209.9213,"arg_perigee_deg":78.8664,"mean_anomaly_deg":281.2709,"bstar":0.00013858,"rev_number":25235,"period_min":109.37311476163,"perigee_km":1196.123822182,"apogee_km":1199.3905477546,"semimajor_km":7575.8941849683,"source":"CELESTRAK","updated_at":"2026-09-20T09:00:44.626796Z"}}